,,,PA_Meas_PMT16A,,PR_Meas_QMR101_102,,RH_Meas_QMH101,,SR_Meas_QMS101,,TA_Meas_QMH101,,GenWind,,GenWind,
date,time,status,PA,status,PR,status,RH,status,SR,status,TA,status,DirAvg,status,SpdAvg,
2011-08-16, 00:00:05,VALID,1005.68,VALID,0,INVALID,163.685,VALID,0,VALID,25.0644,VALID,352,VALID,0,
2011-08-16, 00:01:05,VALID,1005.67,VALID,0,INVALID,163.67,VALID,0,VALID,25.0644,VALID,352,VALID,0,
2011-08-16, 00:02:05,VALID,1005.65,VALID,0,INVALID,163.67,VALID,0,VALID,25.0236,VALID,352,VALID,0,
2011-08-16, 00:03:05,VALID,1005.62,VALID,0,INVALID,163.693,VALID,0,VALID,25.0255,VALID,352,VALID,0,
2011-08-16, 00:04:05,VALID,1005.61,VALID,0,INVALID,163.662,VALID,0,VALID,24.9866,VALID,352,VALID,0,
2011-08-16, 00:05:05,VALID,1005.58,VALID,0,INVALID,163.678,VALID,0.100563,VALID,24.9866,VALID,352,VALID,0,
2011-08-16, 00:06:05,VALID,1005.59,VALID,0,INVALID,163.67,VALID,0,VALID,24.969,VALID,352,VALID,0,
2011-08-16, 00:07:05,VALID,1005.54,VALID,0,INVALID,163.662,VALID,0,VALID,24.9087,VALID,352,VALID,0,
2011-08-16, 00:08:05,VALID,1005.56,VALID,0,INVALID,163.708,VALID,0,VALID,24.8892,VALID,352,VALID,0,
2011-08-16, 00:09:05,VALID,1005.59,VALID,0,INVALID,163.67,VALID,0,VALID,24.8503,VALID,352,VALID,0,
2011-08-16, 00:10:05,VALID,1005.54,VALID,0,INVALID,163.693,VALID,0,VALID,24.8308,VALID,352,VALID,0,
2011-08-16, 00:11:05,VALID,1005.52,VALID,0,INVALID,163.678,VALID,0,VALID,24.7724,VALID,358,VALID,0,
2011-08-16, 00:12:05,VALID,1005.53,VALID,0,INVALID,163.662,VALID,0,VALID,24.7335,VALID,352,VALID,0,
2011-08-16, 00:13:05,VALID,1005.5,VALID,0,INVALID,163.647,VALID,0,VALID,24.7159,VALID,350,VALID,0,
2011-08-16, 00:14:05,VALID,1005.5,VALID,0,INVALID,163.693,VALID,0,VALID,24.6556,VALID,358,VALID,0,
2011-08-16, 00:15:05,VALID,1005.48,VALID,0,INVALID,163.67,VALID,0.100563,VALID,24.6148,VALID,2,VALID,0,
2011-08-16, 00:16:05,VALID,1005.43,VALID,0,INVALID,163.693,VALID,0.100563,VALID,24.6148,VALID,2,VALID,0,
2011-08-16, 00:17:05,VALID,1005.45,VALID,0,INVALID,163.723,VALID,0.100563,VALID,24.6166,VALID,10,VALID,0,
2011-08-16, 00:18:05,VALID,1005.42,VALID,0,INVALID,163.693,VALID,0.100563,VALID,24.5564,VALID,12,VALID,0,
2011-08-16, 00:19:05,VALID,1005.39,VALID,0,INVALID,163.693,VALID,0.100563,VALID,24.5564,VALID,17,VALID,0,
2011-08-16, 00:20:05,VALID,1005.36,VALID,0,INVALID,163.708,VALID,0.100563,VALID,24.5564,VALID,17,VALID,0,
2011-08-16, 00:21:05,VALID,1005.3,VALID,0,INVALID,163.708,VALID,0.100563,VALID,24.5369,VALID,17,VALID,0,
2011-08-16, 00:22:05,VALID,1005.3,VALID,0,INVALID,163.716,VALID,0.100563,VALID,24.5174,VALID,17,VALID,0,
2011-08-16, 00:23:05,VALID,1005.21,VALID,0,INVALID,163.708,VALID,0,VALID,24.5174,VALID,17,VALID,0,
2011-08-16, 00:24:05,VALID,1005.17,VALID,0,INVALID,163.701,VALID,0.100563,VALID,24.498,VALID,17,VALID,0,
2011-08-16, 00:25:05,VALID,1005.12,VALID,0,INVALID,163.716,VALID,0.100563,VALID,24.5193,VALID,17,VALID,0,
2011-08-16, 00:26:05,VALID,1005.09,VALID,0,INVALID,163.708,VALID,0.100563,VALID,24.5388,VALID,17,VALID,0,
2011-08-16, 00:27:05,VALID,1005.03,VALID,0,INVALID,163.685,VALID,0.100563,VALID,24.5174,VALID,17,VALID,0,
2011-08-16, 00:28:05,VALID,1005,VALID,0,INVALID,163.716,VALID,0.100563,VALID,24.5156,VALID,17,VALID,0,
2011-08-16, 00:29:05,VALID,1004.97,VALID,0,INVALID,163.678,VALID,0.100563,VALID,24.5582,VALID,16,VALID,0,
2011-08-16, 00:30:05,VALID,1004.99,VALID,0,INVALID,163.685,VALID,0.100563,VALID,24.5174,VALID,356,VALID,0,
2011-08-16, 00:31:05,VALID,1005,VALID,0,INVALID,163.678,VALID,0.100563,VALID,24.5388,VALID,356,VALID,0,
2011-08-16, 00:32:05,VALID,1004.98,VALID,0,INVALID,163.701,VALID,0.100563,VALID,24.5369,VALID,356,VALID,0,
2011-08-16, 00:33:05,VALID,1005.01,VALID,0,INVALID,163.731,VALID,0.100563,VALID,24.5564,VALID,356,VALID,0,
2011-08-16, 00:34:05,VALID,1005.01,VALID,0,INVALID,163.693,VALID,0.100563,VALID,24.5582,VALID,356,VALID,0,
2011-08-16, 00:35:05,VALID,1005.01,VALID,0,INVALID,163.678,VALID,0.201126,VALID,24.5174,VALID,356,VALID,0,
2011-08-16, 00:36:05,VALID,1004.99,VALID,0,INVALID,163.678,VALID,0.100563,VALID,24.4961,VALID,8,VALID,0,
2011-08-16, 00:37:05,VALID,1004.99,VALID,0,INVALID,163.701,VALID,0.100563,VALID,24.5174,VALID,3,VALID,0,
2011-08-16, 00:38:05,VALID,1004.97,VALID,0,INVALID,163.708,VALID,0.100563,VALID,24.5174,VALID,360,VALID,0,
2011-08-16, 00:39:05,VALID,1004.91,VALID,0,INVALID,163.685,VALID,0.100563,VALID,24.5174,VALID,360,VALID,0,
2011-08-16, 00:40:05,VALID,1004.84,VALID,0,INVALID,163.701,VALID,0.100563,VALID,24.498,VALID,352,VALID,0,
2011-08-16, 00:41:05,VALID,1004.82,VALID,0,INVALID,163.723,VALID,0.100563,VALID,24.5388,VALID,345,VALID,0,
2011-08-16, 00:42:05,VALID,1004.74,VALID,0,INVALID,163.693,VALID,0.100563,VALID,24.5564,VALID,345,VALID,0,
2011-08-16, 00:43:05,VALID,1004.69,VALID,0,INVALID,163.716,VALID,0.201126,VALID,24.5369,VALID,345,VALID,0,
2011-08-16, 00:44:05,VALID,1004.65,VALID,0,INVALID,163.723,VALID,0.100563,VALID,24.5564,VALID,4,VALID,0,
2011-08-16, 00:45:05,VALID,1004.63,VALID,0,INVALID,163.678,VALID,0,VALID,24.5582,VALID,358,VALID,0,
2011-08-16, 00:46:05,VALID,1004.6,VALID,0,INVALID,163.701,VALID,0,VALID,24.5972,VALID,358,VALID,0,
2011-08-16, 00:47:05,VALID,1004.58,VALID,0,INVALID,163.693,VALID,0,VALID,24.5972,VALID,358,VALID,0,
2011-08-16, 00:48:05,VALID,1004.58,VALID,0,INVALID,163.716,VALID,0,VALID,24.5777,VALID,358,VALID,0,
2011-08-16, 00:49:05,VALID,1004.55,VALID,0,INVALID,163.693,VALID,0,VALID,24.5777,VALID,352,VALID,0,
2011-08-16, 00:50:05,VALID,1004.54,VALID,0,INVALID,163.708,VALID,0,VALID,24.599,VALID,354,VALID,0,
2011-08-16, 00:51:05,VALID,1004.56,VALID,0,INVALID,163.716,VALID,0,VALID,24.5582,VALID,351,VALID,0,
2011-08-16, 00:52:05,VALID,1004.58,VALID,0,INVALID,163.693,VALID,0,VALID,24.5777,VALID,345,VALID,0,
2011-08-16, 00:53:05,VALID,1004.6,VALID,0,INVALID,163.693,VALID,0,VALID,24.5777,VALID,358,VALID,0,
2011-08-16, 00:54:05,VALID,1004.6,VALID,0,INVALID,163.693,VALID,0.100563,VALID,24.5777,VALID,349,VALID,0,
2011-08-16, 00:55:05,VALID,1004.59,VALID,0,INVALID,163.723,VALID,0,VALID,24.5582,VALID,6,VALID,0,
2011-08-16, 00:56:05,VALID,1004.6,VALID,0,INVALID,163.731,VALID,0,VALID,24.5601,VALID,359,VALID,0,
2011-08-16, 00:57:05,VALID,1004.58,VALID,0,INVALID,163.685,VALID,0,VALID,24.5406,VALID,352,VALID,0,
2011-08-16, 00:58:05,VALID,1004.58,VALID,0,INVALID,163.693,VALID,0,VALID,24.5388,VALID,343,VALID,0,
2011-08-16, 00:59:05,VALID,1004.55,VALID,0,INVALID,163.716,VALID,0,VALID,24.5972,VALID,347,VALID,0,
2011-08-16, 01:00:05,VALID,1004.53,VALID,0,INVALID,163.693,VALID,0,VALID,24.6556,VALID,3,VALID,0,
2011-08-16, 01:01:05,VALID,1004.48,VALID,0,INVALID,163.678,VALID,0,VALID,24.7529,VALID,310,VALID,0,
2011-08-16, 01:02:05,VALID,1004.45,VALID,0,INVALID,163.708,VALID,0,VALID,24.8327,VALID,259,VALID,0,
2011-08-16, 01:03:05,VALID,1004.4,VALID,0,INVALID,163.685,VALID,0,VALID,24.8308,VALID,360,VALID,0,
2011-08-16, 01:04:05,VALID,1004.35,VALID,0,INVALID,163.693,VALID,0,VALID,24.8503,VALID,321,VALID,0,
2011-08-16, 01:05:05,VALID,1004.33,VALID,0,INVALID,163.693,VALID,0,VALID,24.8697,VALID,322,VALID,0,
2011-08-16, 01:06:05,VALID,1004.31,VALID,0,INVALID,163.655,VALID,0,VALID,24.8697,VALID,324,VALID,0,
2011-08-16, 01:07:05,VALID,1004.31,VALID,0,INVALID,163.678,VALID,0,VALID,24.8697,VALID,324,VALID,0,
2011-08-16, 01:08:05,VALID,1004.31,VALID,0,INVALID,163.67,VALID,0,VALID,24.8697,VALID,353,VALID,0,
2011-08-16, 01:09:05,VALID,1004.29,VALID,0,INVALID,163.67,VALID,0,VALID,24.8503,VALID,355,VALID,0,
2011-08-16, 01:10:05,VALID,1004.31,VALID,0,INVALID,163.655,VALID,0,VALID,24.8503,VALID,351,VALID,0,
2011-08-16, 01:11:05,VALID,1004.31,VALID,0,INVALID,163.647,VALID,0,VALID,24.8113,VALID,352,VALID,0,
2011-08-16, 01:12:05,VALID,1004.31,VALID,0,INVALID,163.716,VALID,0,VALID,24.8327,VALID,354,VALID,0,
2011-08-16, 01:13:05,VALID,1004.34,VALID,0,INVALID,163.67,VALID,0,VALID,24.7937,VALID,317,VALID,0,
2011-08-16, 01:14:05,VALID,1004.3,VALID,0,INVALID,163.662,VALID,0.100563,VALID,24.7724,VALID,335,VALID,0,
2011-08-16, 01:15:05,VALID,1004.32,VALID,0,INVALID,163.67,VALID,0,VALID,24.8132,VALID,354,VALID,0,
2011-08-16, 01:16:05,VALID,1004.32,VALID,0,INVALID,163.655,VALID,0,VALID,24.7724,VALID,344,VALID,0,
2011-08-16, 01:17:05,VALID,1004.32,VALID,0,INVALID,163.693,VALID,0,VALID,24.7937,VALID,335,VALID,0,
2011-08-16, 01:18:05,VALID,1004.29,VALID,0,INVALID,163.678,VALID,0,VALID,24.7705,VALID,339,VALID,0,
2011-08-16, 01:19:05,VALID,1004.33,VALID,0,INVALID,163.685,VALID,0,VALID,24.7919,VALID,341,VALID,0,
2011-08-16, 01:20:05,VALID,1004.29,VALID,0,INVALID,163.685,VALID,0,VALID,24.8113,VALID,2,VALID,0,
2011-08-16, 01:21:05,VALID,1004.29,VALID,0,INVALID,163.701,VALID,0,VALID,24.7919,VALID,354,VALID,0,
2011-08-16, 01:22:05,VALID,1004.3,VALID,0,INVALID,163.678,VALID,0,VALID,24.8132,VALID,357,VALID,0,
2011-08-16, 01:23:05,VALID,1004.28,VALID,0,INVALID,163.647,VALID,0,VALID,24.7724,VALID,351,VALID,0,
2011-08-16, 01:24:05,VALID,1004.3,VALID,0,INVALID,163.731,VALID,0,VALID,24.7743,VALID,352,VALID,0,
2011-08-16, 01:25:05,VALID,1004.31,VALID,0,INVALID,163.693,VALID,0,VALID,24.7743,VALID,353,VALID,0,
2011-08-16, 01:26:05,VALID,1004.32,VALID,0,INVALID,163.685,VALID,0,VALID,24.7724,VALID,345,VALID,0,
2011-08-16, 01:27:04,VALID,1004.28,VALID,0,INVALID,163.685,VALID,0,VALID,24.7724,VALID,350,VALID,0,
2011-08-16, 01:28:04,VALID,1004.29,VALID,0,INVALID,163.693,VALID,0,VALID,24.7919,VALID,352,VALID,0,
2011-08-16, 01:29:04,VALID,1004.3,VALID,0,INVALID,163.662,VALID,0,VALID,24.8522,VALID,349,VALID,0,
2011-08-16, 01:30:04,VALID,1004.27,VALID,0,INVALID,163.662,VALID,0,VALID,24.8503,VALID,347,VALID,0,
2011-08-16, 01:31:04,VALID,1004.24,VALID,0,INVALID,163.655,VALID,0,VALID,24.8503,VALID,353,VALID,0,
2011-08-16, 01:32:04,VALID,1004.25,VALID,0,INVALID,163.746,VALID,0,VALID,24.8503,VALID,334,VALID,0,
2011-08-16, 01:33:04,VALID,1004.24,VALID,0,INVALID,163.678,VALID,0,VALID,24.8503,VALID,334,VALID,0,
2011-08-16, 01:34:04,VALID,1004.26,VALID,0,INVALID,163.678,VALID,0,VALID,24.8308,VALID,6,VALID,0,
2011-08-16, 01:35:04,VALID,1004.27,VALID,0,INVALID,163.678,VALID,0,VALID,24.8113,VALID,6,VALID,0,
2011-08-16, 01:36:04,VALID,1004.29,VALID,0,INVALID,163.67,VALID,0,VALID,24.7919,VALID,351,VALID,0,
2011-08-16, 01:37:04,VALID,1004.32,VALID,0,INVALID,163.678,VALID,0,VALID,24.7529,VALID,351,VALID,0,
2011-08-16, 01:38:04,VALID,1004.32,VALID,0,INVALID,163.685,VALID,0,VALID,24.7548,VALID,351,VALID,0,
2011-08-16, 01:39:04,VALID,1004.32,VALID,0,INVALID,163.67,VALID,0,VALID,24.7548,VALID,351,VALID,0,
2011-08-16, 01:40:04,VALID,1004.32,VALID,0,INVALID,163.67,VALID,0,VALID,24.714,VALID,352,VALID,0,
2011-08-16, 01:41:04,VALID,1004.33,VALID,0,INVALID,163.693,VALID,0,VALID,24.714,VALID,357,VALID,0,
2011-08-16, 01:42:04,VALID,1004.34,VALID,0,INVALID,163.685,VALID,0,VALID,24.6945,VALID,338,VALID,0,
2011-08-16, 01:43:04,VALID,1004.34,VALID,0,INVALID,163.67,VALID,0,VALID,24.7159,VALID,338,VALID,0,
2011-08-16, 01:44:04,VALID,1004.35,VALID,0,INVALID,163.693,VALID,0,VALID,24.7159,VALID,338,VALID,0,
2011-08-16, 01:45:04,VALID,1004.35,VALID,0,INVALID,163.685,VALID,0,VALID,24.6769,VALID,338,VALID,0,
2011-08-16, 01:46:04,VALID,1004.36,VALID,0,INVALID,163.701,VALID,0,VALID,24.6574,VALID,16,VALID,0,
2011-08-16, 01:47:04,VALID,1004.36,VALID,0,INVALID,163.693,VALID,0,VALID,24.6574,VALID,20,VALID,0,
2011-08-16, 01:48:04,VALID,1004.37,VALID,0,INVALID,163.693,VALID,0,VALID,24.5972,VALID,20,VALID,0,
2011-08-16, 01:49:04,VALID,1004.36,VALID,0,INVALID,163.693,VALID,0,VALID,24.5796,VALID,58,VALID,0,
2011-08-16, 01:50:04,VALID,1004.43,VALID,0,INVALID,163.701,VALID,0,VALID,24.5582,VALID,37,VALID,0,
2011-08-16, 01:51:04,VALID,1004.44,VALID,0,INVALID,163.693,VALID,0,VALID,24.5582,VALID,17,VALID,0,
2011-08-16, 01:52:04,VALID,1004.44,VALID,0,INVALID,163.685,VALID,0,VALID,24.5388,VALID,17,VALID,0,
2011-08-16, 01:53:04,VALID,1004.4,VALID,0,INVALID,163.701,VALID,0,VALID,24.5601,VALID,16,VALID,0,
2011-08-16, 01:54:04,VALID,1004.41,VALID,0,INVALID,163.693,VALID,0,VALID,24.5193,VALID,5,VALID,0,
2011-08-16, 01:55:04,VALID,1004.37,VALID,0,INVALID,163.693,VALID,0,VALID,24.5406,VALID,357,VALID,0,
2011-08-16, 01:56:04,VALID,1004.37,VALID,0,INVALID,163.716,VALID,0,VALID,24.5212,VALID,348,VALID,0,
2011-08-16, 01:57:04,VALID,1004.37,VALID,0,INVALID,163.708,VALID,0,VALID,24.5212,VALID,347,VALID,0,
2011-08-16, 01:58:04,VALID,1004.35,VALID,0,INVALID,163.701,VALID,0,VALID,24.4804,VALID,347,VALID,0,
2011-08-16, 01:59:04,VALID,1004.33,VALID,0,INVALID,163.678,VALID,0,VALID,24.4998,VALID,339,VALID,0,
2011-08-16, 02:00:04,VALID,1004.32,VALID,0,INVALID,163.708,VALID,0,VALID,24.5193,VALID,345,VALID,0,
2011-08-16, 02:01:04,VALID,1004.37,VALID,0,INVALID,163.701,VALID,0,VALID,24.5601,VALID,350,VALID,0,
2011-08-16, 02:02:04,VALID,1004.36,VALID,0,INVALID,163.693,VALID,0,VALID,24.5796,VALID,349,VALID,0,
2011-08-16, 02:03:04,VALID,1004.37,VALID,0,INVALID,163.693,VALID,0,VALID,24.5777,VALID,340,VALID,0,
2011-08-16, 02:04:04,VALID,1004.37,VALID,0,INVALID,163.685,VALID,0,VALID,24.5388,VALID,350,VALID,0,
2011-08-16, 02:05:04,VALID,1004.37,VALID,0,INVALID,163.678,VALID,0,VALID,24.5193,VALID,354,VALID,0,
2011-08-16, 02:06:04,VALID,1004.37,VALID,0,INVALID,163.701,VALID,0,VALID,24.5193,VALID,354,VALID,0,
2011-08-16, 02:07:04,VALID,1004.37,VALID,0,INVALID,163.701,VALID,0,VALID,24.4998,VALID,355,VALID,0,
2011-08-16, 02:08:04,VALID,1004.33,VALID,0,INVALID,163.693,VALID,0,VALID,24.5193,VALID,6,VALID,0,
2011-08-16, 02:09:04,VALID,1004.31,VALID,0,INVALID,163.685,VALID,0,VALID,24.5796,VALID,15,VALID,0,
2011-08-16, 02:10:04,VALID,1004.32,VALID,0,INVALID,163.693,VALID,0,VALID,24.5369,VALID,344,VALID,0,
2011-08-16, 02:11:04,VALID,1004.35,VALID,0,INVALID,163.693,VALID,0,VALID,24.5777,VALID,350,VALID,0,
2011-08-16, 02:12:04,VALID,1004.35,VALID,0,INVALID,163.662,VALID,0,VALID,24.5972,VALID,264,VALID,0,
2011-08-16, 02:13:04,VALID,1004.33,VALID,0,INVALID,163.678,VALID,0,VALID,24.5972,VALID,4,VALID,0,
2011-08-16, 02:14:04,VALID,1004.31,VALID,0,INVALID,163.655,VALID,0,VALID,24.638,VALID,355,VALID,0,
2011-08-16, 02:15:04,VALID,1004.29,VALID,0,INVALID,163.685,VALID,0,VALID,24.6361,VALID,355,VALID,0,
2011-08-16, 02:16:04,VALID,1004.27,VALID,0,INVALID,163.701,VALID,0,VALID,24.6556,VALID,354,VALID,0,
2011-08-16, 02:17:04,VALID,1004.28,VALID,0,INVALID,163.693,VALID,0,VALID,24.6361,VALID,356,VALID,0,
2011-08-16, 02:18:04,VALID,1004.25,VALID,0,INVALID,163.67,VALID,0,VALID,24.5953,VALID,5,VALID,0,
2011-08-16, 02:19:04,VALID,1004.23,VALID,0,INVALID,163.708,VALID,0,VALID,24.6166,VALID,345,VALID,0,
2011-08-16, 02:20:04,VALID,1004.2,VALID,0,INVALID,163.67,VALID,0,VALID,24.5972,VALID,349,VALID,0,
2011-08-16, 02:21:04,VALID,1004.19,VALID,0,INVALID,163.693,VALID,0,VALID,24.5777,VALID,336,VALID,0,
2011-08-16, 02:22:04,VALID,1004.22,VALID,0,INVALID,163.693,VALID,0,VALID,24.5777,VALID,331,VALID,0,
2011-08-16, 02:23:04,VALID,1004.2,VALID,0,INVALID,163.708,VALID,0,VALID,24.5777,VALID,356,VALID,0,
2011-08-16, 02:24:04,VALID,1004.17,VALID,0,INVALID,163.708,VALID,0,VALID,24.5777,VALID,352,VALID,0,
2011-08-16, 02:25:04,VALID,1004.17,VALID,0,INVALID,163.67,VALID,0,VALID,24.5777,VALID,353,VALID,0,
2011-08-16, 02:26:04,VALID,1004.15,VALID,0,INVALID,163.67,VALID,0,VALID,24.599,VALID,351,VALID,0,
2011-08-16, 02:27:04,VALID,1004.14,VALID,0,INVALID,163.685,VALID,0,VALID,24.5777,VALID,331,VALID,0,
2011-08-16, 02:28:04,VALID,1004.14,VALID,0,INVALID,163.708,VALID,0,VALID,24.5582,VALID,353,VALID,0,
2011-08-16, 02:29:04,VALID,1004.1,VALID,0,INVALID,163.708,VALID,0,VALID,24.5582,VALID,354,VALID,0,
2011-08-16, 02:30:04,VALID,1004.08,VALID,0,INVALID,163.678,VALID,0,VALID,24.5388,VALID,358,VALID,0,
2011-08-16, 02:31:04,VALID,1004.06,VALID,0,INVALID,163.693,VALID,0,VALID,24.498,VALID,354,VALID,0,
2011-08-16, 02:32:04,VALID,1004.03,VALID,0,INVALID,163.708,VALID,0,VALID,24.5582,VALID,349,VALID,0,
2011-08-16, 02:33:04,VALID,1004.01,VALID,0,INVALID,163.693,VALID,0,VALID,24.6185,VALID,5,VALID,0,
2011-08-16, 02:34:04,VALID,1004,VALID,0,INVALID,163.693,VALID,0,VALID,24.5972,VALID,345,VALID,0,
2011-08-16, 02:35:04,VALID,1004,VALID,0,INVALID,163.67,VALID,0,VALID,24.6556,VALID,5,VALID,0,
2011-08-16, 02:36:04,VALID,1003.98,VALID,0,INVALID,163.685,VALID,0,VALID,24.6166,VALID,16,VALID,0,
2011-08-16, 02:37:04,VALID,1003.98,VALID,0,INVALID,163.701,VALID,0,VALID,24.6166,VALID,355,VALID,0,
2011-08-16, 02:38:04,VALID,1003.94,VALID,0,INVALID,163.685,VALID,0,VALID,24.6185,VALID,346,VALID,0,
2011-08-16, 02:39:04,VALID,1003.99,VALID,0,INVALID,163.701,VALID,0,VALID,24.5972,VALID,346,VALID,0,
2011-08-16, 02:40:04,VALID,1003.97,VALID,0,INVALID,163.716,VALID,0,VALID,24.6185,VALID,351,VALID,0,
2011-08-16, 02:41:04,VALID,1004.02,VALID,0,INVALID,163.67,VALID,0,VALID,24.5777,VALID,356,VALID,0,
2011-08-16, 02:42:04,VALID,1004.02,VALID,0,INVALID,163.708,VALID,0,VALID,24.599,VALID,351,VALID,0,
2011-08-16, 02:43:04,VALID,1004.01,VALID,0,INVALID,163.685,VALID,0,VALID,24.5796,VALID,358,VALID,0,
2011-08-16, 02:44:04,VALID,1004.04,VALID,0,INVALID,163.701,VALID,0,VALID,24.5388,VALID,360,VALID,0,
2011-08-16, 02:45:04,VALID,1004.03,VALID,0,INVALID,163.693,VALID,0,VALID,24.5174,VALID,328,VALID,0,
2011-08-16, 02:46:04,VALID,1004.04,VALID,0,INVALID,163.678,VALID,0,VALID,24.5193,VALID,351,VALID,0,
2011-08-16, 02:47:04,VALID,1004.05,VALID,0,INVALID,163.701,VALID,0,VALID,24.4998,VALID,352,VALID,0,
2011-08-16, 02:48:04,VALID,1004.05,VALID,0,INVALID,163.678,VALID,0,VALID,24.4804,VALID,344,VALID,0,
2011-08-16, 02:49:04,VALID,1004.05,VALID,0,INVALID,163.701,VALID,0,VALID,24.4396,VALID,352,VALID,0,
2011-08-16, 02:50:04,VALID,1004.01,VALID,0,INVALID,163.716,VALID,0,VALID,24.4414,VALID,351,VALID,0,
2011-08-16, 02:51:04,VALID,1004,VALID,0,INVALID,163.784,VALID,0,VALID,24.4433,VALID,296,VALID,0,
2011-08-16, 02:52:04,VALID,1003.97,VALID,0,INVALID,163.701,VALID,0,VALID,24.4433,VALID,353,VALID,0,
2011-08-16, 02:53:04,VALID,1003.96,VALID,0,INVALID,163.678,VALID,0,VALID,24.4025,VALID,327,VALID,0,
2011-08-16, 02:54:04,VALID,1003.94,VALID,0,INVALID,163.693,VALID,0,VALID,24.4025,VALID,356,VALID,0,
2011-08-16, 02:55:04,VALID,1003.97,VALID,0,INVALID,163.708,VALID,0,VALID,24.383,VALID,352,VALID,0,
2011-08-16, 02:56:04,VALID,1003.98,VALID,0,INVALID,163.685,VALID,0,VALID,24.3636,VALID,350,VALID,0,
2011-08-16, 02:57:04,VALID,1003.97,VALID,0,INVALID,163.701,VALID,0,VALID,24.3441,VALID,352,VALID,0,
2011-08-16, 02:58:04,VALID,1003.96,VALID,0,INVALID,163.685,VALID,0,VALID,24.3441,VALID,349,VALID,0,
2011-08-16, 02:59:04,VALID,1003.96,VALID,0,INVALID,163.723,VALID,0,VALID,24.3654,VALID,351,VALID,0,
2011-08-16, 03:00:04,VALID,1003.98,VALID,0,INVALID,163.716,VALID,0,VALID,24.3228,VALID,360,VALID,0,
2011-08-16, 03:01:04,VALID,1003.99,VALID,0,INVALID,163.723,VALID,0,VALID,24.3441,VALID,345,VALID,0,
2011-08-16, 03:02:04,VALID,1003.98,VALID,0,INVALID,163.723,VALID,0,VALID,24.3441,VALID,345,VALID,0,
2011-08-16, 03:03:04,VALID,1003.99,VALID,0,INVALID,163.701,VALID,0,VALID,24.3441,VALID,354,VALID,0,
2011-08-16, 03:04:04,VALID,1003.98,VALID,0,INVALID,163.708,VALID,0,VALID,24.3441,VALID,17,VALID,0,
2011-08-16, 03:05:04,VALID,1003.95,VALID,0,INVALID,163.716,VALID,0,VALID,24.3441,VALID,352,VALID,0,
2011-08-16, 03:06:04,VALID,1003.91,VALID,0,INVALID,163.716,VALID,0,VALID,24.3654,VALID,352,VALID,0,
2011-08-16, 03:07:04,VALID,1003.87,VALID,0,INVALID,163.701,VALID,0,VALID,24.383,VALID,340,VALID,0,
2011-08-16, 03:08:04,VALID,1003.86,VALID,0,INVALID,163.716,VALID,0,VALID,24.4025,VALID,348,VALID,0,
2011-08-16, 03:09:04,VALID,1003.84,VALID,0,INVALID,163.693,VALID,0,VALID,24.422,VALID,329,VALID,0,
2011-08-16, 03:10:04,VALID,1003.82,VALID,0,INVALID,163.723,VALID,0,VALID,24.4822,VALID,352,VALID,0,
2011-08-16, 03:11:04,VALID,1003.81,VALID,0,INVALID,163.716,VALID,0,VALID,24.4804,VALID,357,VALID,0,
2011-08-16, 03:12:04,VALID,1003.82,VALID,0,INVALID,163.693,VALID,0,VALID,24.5193,VALID,5,VALID,0,
2011-08-16, 03:13:04,VALID,1003.8,VALID,0,INVALID,163.723,VALID,0,VALID,24.5406,VALID,355,VALID,0,
2011-08-16, 03:14:04,VALID,1003.81,VALID,0,INVALID,163.701,VALID,0,VALID,24.5388,VALID,353,VALID,0,
2011-08-16, 03:15:04,VALID,1003.81,VALID,0,INVALID,163.716,VALID,0,VALID,24.5564,VALID,359,VALID,0,
2011-08-16, 03:16:04,VALID,1003.8,VALID,0,INVALID,163.708,VALID,0,VALID,24.5777,VALID,346,VALID,0,
2011-08-16, 03:17:04,VALID,1003.8,VALID,0,INVALID,163.731,VALID,0,VALID,24.5972,VALID,347,VALID,0,
2011-08-16, 03:18:04,VALID,1003.78,VALID,0,INVALID,163.708,VALID,0,VALID,24.6166,VALID,13,VALID,0,
2011-08-16, 03:19:04,VALID,1003.79,VALID,0,INVALID,163.708,VALID,0,VALID,24.6185,VALID,357,VALID,0,
2011-08-16, 03:20:04,VALID,1003.82,VALID,0,INVALID,163.693,VALID,0,VALID,24.5972,VALID,357,VALID,0,
2011-08-16, 03:21:04,VALID,1003.83,VALID,0,INVALID,163.708,VALID,0,VALID,24.5777,VALID,357,VALID,0,
2011-08-16, 03:22:04,VALID,1003.83,VALID,0,INVALID,163.708,VALID,0,VALID,24.5582,VALID,353,VALID,0,
2011-08-16, 03:23:04,VALID,1003.82,VALID,0,INVALID,163.693,VALID,0,VALID,24.5388,VALID,353,VALID,0,
2011-08-16, 03:24:04,VALID,1003.79,VALID,0,INVALID,163.685,VALID,0,VALID,24.5193,VALID,356,VALID,0,
2011-08-16, 03:25:04,VALID,1003.78,VALID,0,INVALID,163.708,VALID,0,VALID,24.4998,VALID,325,VALID,0,
2011-08-16, 03:26:04,VALID,1003.78,VALID,0,INVALID,163.685,VALID,0,VALID,24.4998,VALID,325,VALID,0,
2011-08-16, 03:27:04,VALID,1003.79,VALID,0,INVALID,163.716,VALID,0,VALID,24.4804,VALID,325,VALID,0,
2011-08-16, 03:28:04,VALID,1003.76,VALID,0,INVALID,163.708,VALID,0,VALID,24.4804,VALID,332,VALID,0,
2011-08-16, 03:29:04,VALID,1003.76,VALID,0,INVALID,163.685,VALID,0,VALID,24.4609,VALID,346,VALID,0,
2011-08-16, 03:30:04,VALID,1003.78,VALID,0,INVALID,163.693,VALID,0,VALID,24.4822,VALID,346,VALID,0,
2011-08-16, 03:31:04,VALID,1003.79,VALID,0,INVALID,163.716,VALID,0,VALID,24.4609,VALID,346,VALID,0,
2011-08-16, 03:32:04,VALID,1003.81,VALID,0,INVALID,163.693,VALID,0,VALID,24.5017,VALID,346,VALID,0,
2011-08-16, 03:33:04,VALID,1003.8,VALID,0,INVALID,163.701,VALID,0,VALID,24.4396,VALID,346,VALID,0,
2011-08-16, 03:34:04,VALID,1003.78,VALID,0,INVALID,163.693,VALID,0,VALID,24.4609,VALID,346,VALID,0,
2011-08-16, 03:35:04,VALID,1003.77,VALID,0,INVALID,163.701,VALID,0,VALID,24.4414,VALID,346,VALID,0,
2011-08-16, 03:36:04,VALID,1003.8,VALID,0,INVALID,163.723,VALID,0,VALID,24.4025,VALID,346,VALID,0,
2011-08-16, 03:37:04,VALID,1003.76,VALID,0,INVALID,163.701,VALID,0,VALID,24.4025,VALID,346,VALID,0,
2011-08-16, 03:38:04,VALID,1003.78,VALID,0,INVALID,163.708,VALID,0,VALID,24.3617,VALID,346,VALID,0,
2011-08-16, 03:39:04,VALID,1003.74,VALID,0,INVALID,163.716,VALID,0.100563,VALID,24.3422,VALID,346,VALID,0,
2011-08-16, 03:40:04,VALID,1003.74,VALID,0,INVALID,163.701,VALID,0,VALID,24.3033,VALID,332,VALID,0,
2011-08-16, 03:41:04,VALID,1003.75,VALID,0,INVALID,163.708,VALID,0,VALID,24.3246,VALID,285,VALID,0,
2011-08-16, 03:42:04,VALID,1003.76,VALID,0,INVALID,163.723,VALID,0,VALID,24.3265,VALID,288,VALID,0,
2011-08-16, 03:43:04,VALID,1003.73,VALID,0,INVALID,163.723,VALID,0,VALID,24.3265,VALID,288,VALID,0,
2011-08-16, 03:44:04,VALID,1003.74,VALID,0,INVALID,163.685,VALID,0,VALID,24.3052,VALID,289,VALID,0,
2011-08-16, 03:45:04,VALID,1003.75,VALID,0,INVALID,163.716,VALID,0,VALID,24.2857,VALID,289,VALID,0,
2011-08-16, 03:46:04,VALID,1003.77,VALID,0,INVALID,163.701,VALID,0,VALID,24.2857,VALID,306,VALID,0,
2011-08-16, 03:47:04,VALID,1003.8,VALID,0,INVALID,163.723,VALID,0,VALID,24.2662,VALID,305,VALID,0,
2011-08-16, 03:48:04,VALID,1003.76,VALID,0,INVALID,163.693,VALID,0,VALID,24.2468,VALID,301,VALID,0,
2011-08-16, 03:49:04,VALID,1003.78,VALID,0,INVALID,163.693,VALID,0,VALID,24.2273,VALID,293,VALID,0,
2011-08-16, 03:50:04,VALID,1003.78,VALID,0,INVALID,163.746,VALID,0,VALID,24.206,VALID,294,VALID,0,
2011-08-16, 03:51:04,VALID,1003.73,VALID,0,INVALID,163.716,VALID,0,VALID,24.2273,VALID,298,VALID,0,
2011-08-16, 03:52:04,VALID,1003.75,VALID,0,INVALID,163.693,VALID,0,VALID,24.2078,VALID,322,VALID,0,
2011-08-16, 03:53:04,VALID,1003.73,VALID,0,INVALID,163.723,VALID,0.100563,VALID,24.1884,VALID,353,VALID,0,